Location: Armidale
(30.5016°S, 151.6662°E)
Time: 08:12:40
(UTC+10:00)

N. Korean satellite - Pass Details

Date: 21 May 2021
Orbit: 450 x 500 km, 97.2° (Epoch: 18 June)

Event Time Altitude Azimuth Distance (km) Brightness Sun altitude
Rises 04:59:52 0° 354° (N) 2,481 10.2 -20.5°
Reaches altitude 10° 05:02:00 10° 344° (NNW) 1,624 9.2 -20.0°
Enters shadow 05:02:50 16° 337° (NNW) 1,318 8.6 -19.9°
